Terminal Aerodrome Forecast
Issued by NWS

Home | Current Version | Previous Version | Graphics & Text | Print | Product List | Glossary On
Versions: 1 2 3 4 5 6 7 8 9 10 11 12 13
000
FTUS42 KMHX 311000 AAA
TAFPGV
TAF AMD
KPGV 311036Z 3111/0106 00000KT 2SM BR BKN007
     FM311200 20008KT P6SM SCT040
     FM010200 21004KT P6SM SKC
      AMD LTD TO CLD VIS AND WIND=

USA.gov is the U.S. government's official web portal to all federal, state and local government web resources and services.